Location: Little Baddow
(51.7333°N, 0.5667°E)
Time: 00:31:36
(UTC+00:00)

ARGOS - Pass Details

Date: 08 November 2025
Orbit: 819 x 832 km, 98.5° (Epoch: 13 December)

Event Time Altitude Azimuth Distance (km) Brightness Sun altitude
Rises 04:06:42 0° 15° (NNE) 3,390 6.6 -27.6°
Reaches altitude 10° 04:09:04 10° 16° (NNE) 2,453 5.9 -27.2°
Maximum altitude 04:14:32 85° 104° (ESE) 844 3.1 -26.4°
Enters shadow 04:16:17 45° 190° (S) 1,124 3.6 -26.1°
